[[{"header":{"parameterUnit":"m.s-1","parameterCategory":1,"la1":30.2991,"la2":30.254,"lo1":-89.0895,"lo2":-89.0444,"dy":0.0017,"dx":0.0017,"nx":28,"ny":28,"refTime":"2025-07-09T09:00:00:Z","depth":0,"parameterNumber":2,"parameterNumberName":"U-component_of_WINDS"},"data":[0,0,0,0,0,0,0,0,0,0,0,0,0,0,0,0,0,0,0,0,0,0,0,0,0,0,0,0,0,0,0,0,0,0,0,0,0,0,0,0,0,0,0,0,0,0,0,0,0,0,0,0,0,0,0,0,0,0,2.6896,2.6897,0,2.6995,2.6996,2.6997,2.7011,2.701,2.7009,2.7008,2.7114,2.7118,2.7122,0,0,0,0,0,0,0,0,0,0,0,0,0,2.6725,2.6728,2.6896,2.6897,2.6898,2.6994,2.6996,2.6997,2.7011,2.701,2.7009,2.7008,2.7113,2.7118,2.7122,0,0,0,0,0,0,0,0,0,0,0,0,0,2.6809,2.6729,2.6896,2.6917,2.692,2.6994,2.6996,2.6998,2.7012,2.701,2.7009,2.7007,2.7112,2.7117,2.7123,2.7184,0,0,2.7139,2.7142,0,0,0,0,0,0,0,0,2.6804,2.6815,2.6912,2.6915,2.6919,2.6989,2.6974,2.706,2.7012,2.6977,2.7008,2.7007,2.7074,2.7083,2.7104,2.7189,2.7194,2.714,2.7143,2.7146,2.7147,0,0,0,0,0,0,0,2.6798,2.6811,2.6935,2.6914,2.6918,2.6923,2.6934,2.6991,2.7032,2.698,2.6981,2.6992,2.7076,2.7099,2.7107,2.7195,2.714,2.7145,2.7148,2.715,2.7337,2.7338,0,0,0,0,0,0,2.6788,2.6806,2.6932,2.6938,2.6857,2.6927,2.6939,2.6968,2.7032,2.704,2.6993,2.6993,2.709,2.71,2.7111,2.7187,2.7146,2.7151,2.7154,2.7335,2.7337,2.7339,0,0,0,0,0,0,2.6784,2.6799,2.6928,2.6872,2.6889,2.6932,2.6964,2.6971,2.6994,2.7042,2.705,2.7009,2.709,2.7103,2.7166,2.7191,2.7153,2.7158,2.7333,2.7336,2.7338,2.734,0,0,0,0,0,0,2.6779,2.6797,2.682,2.6873,2.6892,2.698,2.6966,2.6974,2.7003,2.7003,2.7059,2.7067,2.7089,2.7157,2.7171,2.7198,2.7163,2.7331,2.7334,2.7337,2.7338,2.7342,2.7346,0,0,0,0,0,2.6773,2.6818,2.6821,2.6836,2.6921,2.6981,2.6992,2.7016,2.7005,2.7029,2.706,2.7065,2.7186,2.7164,2.7179,2.7208,2.733,2.7333,2.7337,2.7336,2.7341,2.7346,0,0,0,0,0,0,2.6768,2.6825,2.6829,2.6892,2.6931,2.6983,2.7014,2.7021,2.7065,2.7064,2.7093,2.7106,2.7167,2.7194,2.7168,2.7272,2.7257,2.7264,2.7251,2.7257,2.7261,2.7252,2.7167,0,0,0,0,0,2.6774,2.6816,2.6865,2.6915,2.6935,2.6971,2.6998,2.7013,2.7056,2.7073,2.7108,2.7151,2.7198,2.7229,2.7276,2.7342,2.7355,2.737,2.7374,2.7377,2.7383,2.742,2.7428,2.7351,2.7351,2.7351,0,0,2.6787,2.6824,2.6849,2.6915,2.6947,2.6992,2.6985,2.7032,2.7066,2.7081,2.7141,2.7169,2.7219,2.7283,2.7314,2.7308,2.7407,2.7382,2.7384,2.7388,2.7425,2.7432,2.7439,2.7353,2.7353,2.7353,0,0,2.6834,2.6865,2.6911,2.6943,2.6992,2.7016,2.7027,2.7078,2.7096,2.7158,2.7169,2.7211,2.7293,2.7327,2.7356,2.7417,2.7424,2.7432,2.7452,2.7489,2.7495,2.75,2.7522,2.7529,2.7437,2.7437,2.7437,0,2.6844,2.691,2.6934,2.6981,2.701,2.7024,2.7072,2.7103,2.7165,2.7185,2.7178,2.728,2.7315,2.7388,2.7403,2.7425,2.744,2.7425,2.7492,2.7497,2.7503,2.7524,2.7532,2.7438,2.7438,2.7438,2.7437,0,2.6921,2.6967,2.6998,2.7056,2.7089,2.7136,2.7169,2.72,2.7213,2.7238,2.7301,2.7343,2.7398,2.7417,2.743,2.7492,2.7487,2.7485,2.7471,2.751,2.7531,2.7539,2.7438,2.7438,2.7438,2.7438,0,0,2.6965,2.7036,2.7047,2.7074,2.7129,2.7166,2.7215,2.7267,2.7293,2.7336,2.7378,2.7447,2.7446,2.7478,2.7496,2.7528,2.7574,2.7523,2.7524,2.753,2.7645,2.7645,2.7654,2.7579,2.7581,2.7582,2.7641,0,2.7018,2.7102,2.7126,2.7198,2.7242,2.7256,2.7299,2.7338,2.7364,2.7405,2.7434,2.7482,2.7477,2.7497,2.7529,2.7561,2.7597,2.7557,2.7619,2.7621,2.7605,2.7665,2.7665,2.7718,2.7649,2.765,2.7651,0,2.709,2.7132,2.7208,2.7259,2.7278,2.7315,2.7366,2.7405,2.7451,2.7467,2.7503,2.7519,2.7571,2.7555,2.7629,2.7601,2.7629,2.7648,2.7651,2.7657,2.7637,2.7671,2.7736,2.7743,2.7664,2.7663,2.7662,0,2.7114,2.7191,2.7246,2.7269,2.7329,2.7355,2.7381,2.7426,2.7456,2.7501,2.7521,2.7573,2.7601,2.7641,2.767,2.7655,2.7741,2.7728,2.7757,2.7756,2.7773,2.7772,2.7842,2.7792,2.7792,2.7792,2.7792,0,2.7169,2.7215,2.7258,2.7292,2.7344,2.7372,2.7424,2.7451,2.7491,2.7532,2.7549,2.7587,2.7623,2.7667,2.7691,2.7748,2.7761,2.7777,2.7782,2.7775,2.7772,2.7792,2.7789,2.7794,2.7794,2.7793,2.7793,0,2.7204,2.7235,2.7296,2.7348,2.7362,2.7399,2.7444,2.7478,2.7505,2.7556,2.757,2.7612,2.7664,2.7697,2.7765,2.7781,2.7844,2.7848,2.7827,2.783,2.7857,2.7854,2.7941,2.7954,2.7897,2.7897,2.7898,0,2.7237,2.7272,2.7328,2.7356,2.7382,2.7427,2.7458,2.7488,2.7519,2.7575,2.7603,2.7656,2.77,2.7783,2.7821,2.7872,2.7878,2.7905,2.7886,2.7877,2.7878,2.7875,2.7879,2.7908,2.7909,2.7909,2.7909,0,2.7292,2.7305,2.7348,2.7397,2.7433,2.7473,2.7513,2.7536,2.7573,2.7608,2.7661,2.7695,2.7763,2.7816,2.7871,2.79,2.7911,2.7915,2.7925,2.7917,2.7903,2.791,2.7835,2.7913,2.7913,2.7912,2.7912,2.7912,2.7326,2.7358,2.7402,2.745,2.7484,2.7521,2.7556,2.7586,2.763,2.7687,2.7703,2.7758,2.7805,2.7879,2.791,2.7955,2.7951,2.7965,2.7969,2.7971,2.7971,2.7896,2.7965,2.7965,2.7965,2.7965,2.7965,0,2.7381,2.741,2.7454,2.7509,2.7547,2.7553,2.7599,2.763,2.7678,2.772,2.7763,2.7824,2.7876,2.7917,2.7971,2.7999,2.8006,2.8012,2.801,2.8016,2.7972,2.7958,2.8006,2.8006,2.8006,2.8006,2.8006,2.8006,2.7414,2.7469,2.7488,2.756,2.759,2.7643,2.7668,2.7703,2.7736,2.7804,2.7846,2.7873,2.7915,2.7972,2.802,2.8031,2.805,2.8055,2.8067,2.8024,2.802,2.8015,2.8002,2.8059,2.8059,2.8108,2.8109,2.8109]},{"header":{"parameterUnit":"m.s-1","parameterCategory":1,"la1":30.2991,"la2":30.254,"lo1":-89.0895,"lo2":-89.0444,"dy":0.0017,"dx":0.0017,"nx":28,"ny":28,"refTime":"2025-07-09T09:00:00:Z","depth":0,"parameterNumber":3,"parameterNumberName":"V-component_of_WINDS"},"data":[0,0,0,0,0,0,0,0,0,0,0,0,0,0,0,0,0,0,0,0,0,0,0,0,0,0,0,0,0,0,0,0,0,0,0,0,0,0,0,0,0,0,0,0,0,0,0,0,0,0,0,0,0,0,0,0,0,0,3.577,3.577,0,3.5818,3.5818,3.5819,3.5848,3.5848,3.5848,3.5849,3.5894,3.5895,3.5896,0,0,0,0,0,0,0,0,0,0,0,0,0,3.5698,3.5699,3.577,3.577,3.5771,3.5818,3.5818,3.5819,3.5848,3.5848,3.5849,3.5849,3.5894,3.5895,3.5896,0,0,0,0,0,0,0,0,0,0,0,0,0,3.5736,3.5699,3.5769,3.5791,3.5794,3.5817,3.5818,3.5819,3.5848,3.5848,3.5849,3.5849,3.5893,3.5895,3.5896,3.5902,0,0,3.5901,3.5902,0,0,0,0,0,0,0,0,3.5733,3.5738,3.5787,3.579,3.5792,3.5827,3.581,3.5847,3.5848,3.5827,3.5849,3.5849,3.5871,3.5875,3.5883,3.5904,3.5906,3.5901,3.5902,3.5903,3.5904,0,0,0,0,0,0,0,3.5731,3.5736,3.5789,3.5788,3.5791,3.5797,3.5802,3.5817,3.5847,3.5829,3.5831,3.5837,3.5873,3.5882,3.5884,3.5906,3.5901,3.5903,3.5904,3.5904,3.5931,3.5931,0,0,0,0,0,0,3.5725,3.5734,3.5787,3.579,3.5763,3.5798,3.5804,3.5816,3.5847,3.5852,3.5837,3.5838,3.5879,3.5883,3.5886,3.5893,3.5903,3.5905,3.5906,3.5931,3.5931,3.5931,0,0,0,0,0,0,3.5724,3.573,3.5785,3.5763,3.577,3.5799,3.5812,3.5817,3.5826,3.5853,3.5858,3.584,3.5879,3.5884,3.5897,3.5895,3.5905,3.5907,3.5932,3.5931,3.5931,3.5908,0,0,0,0,0,0,3.5721,3.5729,3.5733,3.5762,3.5771,3.5797,3.5812,3.5817,3.5829,3.5831,3.5858,3.5862,3.588,3.5895,3.5899,3.5898,3.5908,3.5932,3.5931,3.5931,3.5909,3.5907,3.5905,0,0,0,0,0,3.5719,3.5724,3.5733,3.5739,3.5777,3.5797,3.5802,3.5822,3.5828,3.5831,3.5848,3.5862,3.5895,3.5896,3.5901,3.59,3.5932,3.5931,3.5931,3.591,3.5907,3.5905,0,0,0,0,0,0,3.5692,3.5728,3.5739,3.5754,3.5772,3.5802,3.5806,3.5819,3.5835,3.5837,3.586,3.5866,3.5877,3.589,3.589,3.5905,3.5915,3.5915,3.5897,3.5895,3.5892,3.5889,3.5909,0,0,0,0,0,3.5688,3.5703,3.5733,3.5744,3.5752,3.5777,3.5787,3.5801,3.5821,3.5829,3.5847,3.5864,3.5878,3.5887,3.5902,3.591,3.5916,3.5912,3.591,3.5908,3.5908,3.5912,3.591,3.5929,3.5929,3.5929,0,0,3.568,3.5702,3.571,3.5739,3.5755,3.5768,3.5784,3.5798,3.5807,3.583,3.5844,3.5858,3.5878,3.5889,3.5895,3.59,3.5904,3.5907,3.5906,3.5907,3.5911,3.591,3.5908,3.5928,3.5928,3.5929,0,0,3.5672,3.5691,3.5701,3.5716,3.574,3.5756,3.5758,3.5786,3.5796,3.5811,3.5828,3.5838,3.5862,3.5876,3.5886,3.588,3.5892,3.5884,3.5874,3.5877,3.5876,3.5874,3.5871,3.587,3.5884,3.5884,3.5884,0,3.5659,3.5681,3.5704,3.5716,3.5728,3.575,3.5759,3.5772,3.5799,3.5805,3.5811,3.5841,3.5856,3.587,3.5868,3.5876,3.5878,3.5882,3.5874,3.5873,3.5872,3.587,3.5869,3.5883,3.5883,3.5883,3.5883,0,3.5663,3.5677,3.5682,3.5709,3.572,3.5731,3.5753,3.5762,3.5775,3.579,3.5803,3.5822,3.584,3.5844,3.5856,3.5858,3.5861,3.587,3.588,3.5869,3.5867,3.5866,3.5881,3.5882,3.5882,3.5882,0,0,3.5642,3.5679,3.568,3.5691,3.5718,3.5729,3.5739,3.5758,3.5764,3.5781,3.5789,3.5808,3.5817,3.5828,3.5842,3.5845,3.5837,3.5853,3.5854,3.5849,3.5839,3.5832,3.5831,3.5845,3.5845,3.5845,3.5837,0,3.5637,3.5659,3.5678,3.5692,3.5704,3.5724,3.5732,3.5749,3.5762,3.5774,3.5788,3.5801,3.5812,3.5818,3.5822,3.5837,3.5836,3.5838,3.5852,3.5852,3.5846,3.583,3.5823,3.5814,3.5837,3.5837,3.5836,0,3.5636,3.5652,3.5667,3.5691,3.5697,3.5705,3.5722,3.5733,3.5751,3.576,3.5772,3.5786,3.5796,3.5804,3.5817,3.5818,3.5824,3.5832,3.5833,3.5835,3.5844,3.5831,3.5812,3.5811,3.5835,3.5836,3.5836,0,3.5617,3.5643,3.5655,3.5664,3.5692,3.5697,3.5709,3.5727,3.5736,3.575,3.5756,3.5771,3.5779,3.579,3.5807,3.5811,3.5817,3.5827,3.5824,3.5824,3.5825,3.5825,3.5807,3.5829,3.5829,3.5829,3.5829,0,3.5611,3.5619,3.5647,3.5654,3.5663,3.5684,3.5692,3.5705,3.572,3.5729,3.5746,3.5754,3.5776,3.5786,3.5799,3.5807,3.581,3.5817,3.582,3.5816,3.5815,3.582,3.5821,3.5829,3.5829,3.5829,3.5829,0,3.5593,3.5612,3.5626,3.5651,3.5657,3.5662,3.5683,3.569,3.5704,3.5714,3.5718,3.5739,3.5751,3.5769,3.5787,3.5795,3.5801,3.5806,3.5795,3.5797,3.5792,3.5792,3.5777,3.5776,3.58,3.5799,3.5799,0,3.5587,3.5594,3.5619,3.5626,3.5638,3.5649,3.5659,3.5678,3.5687,3.5706,3.571,3.5724,3.5736,3.5753,3.577,3.5782,3.5788,3.5782,3.579,3.5784,3.5787,3.5786,3.5786,3.578,3.578,3.5779,3.5779,0,3.5575,3.5584,3.5597,3.5613,3.5623,3.5636,3.565,3.5655,3.5677,3.5686,3.5698,3.5707,3.5725,3.5737,3.5752,3.5762,3.5774,3.5776,3.5776,3.5771,3.5764,3.5767,3.5789,3.5777,3.5777,3.5777,3.5777,3.5777,3.5563,3.5569,3.5587,3.56,3.5613,3.5625,3.5632,3.5646,3.5657,3.5673,3.5684,3.5695,3.5711,3.5732,3.5741,3.5749,3.5754,3.5754,3.5754,3.5754,3.5752,3.5763,3.5752,3.5752,3.5752,3.5752,3.5752,0,3.5551,3.5563,3.5575,3.5594,3.5604,3.5614,3.5629,3.5636,3.5647,3.566,3.5671,3.5684,3.5696,3.5712,3.5725,3.5728,3.5734,3.5731,3.5731,3.5732,3.5747,3.5745,3.5726,3.5726,3.5726,3.5726,3.5726,3.5726,3.5546,3.5556,3.5567,3.5582,3.5594,3.5606,3.5614,3.5624,3.5635,3.5649,3.5659,3.567,3.5684,3.5697,3.5707,3.5712,3.5715,3.571,3.5716,3.5729,3.5732,3.5734,3.5733,3.5711,3.5711,3.5701,3.5701,3.5701]}]]